This is the latest recevied weather packets stored in our database for station/object G4ZMG. If no packets are shown the sender has not sent any weather packets the latest 10 day(s).
| Time | Temp. | Humidity | Pressure | Rain* | Wind** | Luminosity | Snow |
|---|---|---|---|---|---|---|---|
| 1777478433 | 18.33° C | 32% | 1021.7 hPa | 0 mm | - | 508 W/m² | - |
| 1777477811 | 18.33° C | 32% | 1021.8 hPa | 0 mm | - | 566 W/m² | - |
| 1777477247 | 17.78° C | 33% | 1021.9 hPa | 0 mm | - | 438 W/m² | - |
| 1777476638 | 18.33° C | 30% | 1021.9 hPa | 0 mm | - | 448 W/m² | - |
| 1777476029 | 18.89° C | 32% | 1021.9 hPa | 0 mm | - | 621 W/m² | - |
| 1777475416 | 18.33° C | 31% | 1022 hPa | 0 mm | - | 642 W/m² | - |
| 1777474826 | 18.33° C | 30% | 1022.2 hPa | 0 mm | - | 650 W/m² | - |
| 1777474209 | 18.33° C | 30% | 1022.2 hPa | 0 mm | - | 643 W/m² | - |
| 1777473643 | 18.33° C | 32% | 1022.1 hPa | 0 mm | - | 541 W/m² | - |
| 1777473029 | 18.89° C | 31% | 1022.3 hPa | 0 mm | - | 687 W/m² | - |
| 1777472414 | 18.89° C | 32% | 1022.4 hPa | 0 mm | - | 719 W/m² | - |
| 1777471803 | 18.33° C | 31% | 1022.5 hPa | 0 mm | - | 554 W/m² | - |
| 1777471248 | 18.33° C | 30% | 1022.7 hPa | 0 mm | - | 737 W/m² | - |
| 1777470639 | 18.33° C | 30% | 1022.6 hPa | 0 mm | - | 754 W/m² | - |
| 1777470029 | 18.89° C | 33% | 1022.5 hPa | 0 mm | - | 788 W/m² | - |
| 1777469417 | 18.89° C | 32% | 1022.3 hPa | 0 mm | - | 786 W/m² | - |
| 1777468808 | 18.33° C | 31% | 1022.5 hPa | 0 mm | - | 791 W/m² | - |
| 1777468248 | 18.33° C | 32% | 1022.6 hPa | 0 mm | - | 796 W/m² | - |
| 1777467628 | 18.33° C | 31% | 1022.7 hPa | 0 mm | - | 802 W/m² | - |
| 1777466407 | 18.33° C | 36% | 1022.9 hPa | 0 mm | - | 809 W/m² | - |
| 1777465847 | 17.78° C | 35% | 1023.2 hPa | 0 mm | - | 810 W/m² | - |
| 1777465242 | 17.78° C | 38% | 1023.1 hPa | 0 mm | - | 814 W/m² | - |
| 1777464629 | 17.22° C | 39% | 1023.3 hPa | 0 mm | - | 810 W/m² | - |
| 1777464035 | 17.22° C | 45% | 1023.3 hPa | 0 mm | - | 809 W/m² | - |
| 1777463423 | 17.22° C | 46% | 1023.3 hPa | 0 mm | - | 802 W/m² | - |
* Rain latest hour (hover to see other rain measurements)
** Current wind speed in m/s (hover to see current wind gust speed)